Regional Weather Roundup
Issued by NWS Goodland, KS

Home | Current Version | Previous Version | Graphics & Text | Print | Product List | Glossary On
Versions: 1 2 3 4 5 6 7 8 9 10 11 12 13 14 15 16 17 18 19 20 21 22 23 24 25 26 27 28 29 30 31 32 33 34 35 36 37 38 39 40 41 42 43 44 45 46 47 48 49 50
000
ASUS43 KGLD 280608
RWRGLD

GOODLAND FORECAST AREA HOURLY WEATHER ROUNDUP
NATIONAL WEATHER SERVICE GOODLAND KS
1200 AM MDT WED JUN 28 2017

...OFFICIAL OBSERVATIONS...

CITY           SKY/WX    TMP DP  RH WIND       PRES   REMARKS
GOODLAND KS    CLOUDY    68  59  73 SE17      29.78R
HILL CITY KS   TSTM      71  64  78 SE10      29.82R
IMPERIAL NEB   PTCLDY    67  54  63 N3        29.78R
MCCOOK NEB     CLOUDY    78  56  46 NE16G25   29.74R
AKRON CO       CLEAR     64  42  44 N7        29.87R
BURLINGTON CO  CLEAR     70  55  59 N8        29.84R
LIMON CO       CLEAR     65  41  41 NE12      29.92R
$$

...UNOFFICIAL OBSERVATIONS...

CITY           SKY/WX    TMP DP  RH WIND       PRES   REMARKS
LENORA KS        N/A     72  32  23 MISG        N/A
NORTON KS      LGT RAIN  79  45  29 S17G33    29.76S
SHARON SPRINGS   N/A     70  62  74 SE22G31     N/A
TRENTON NEB      N/A     74  32  21 E5          N/A
KIT CARSON CO    N/A     71  54  55 MISG        N/A
YUMA CO        MOCLDY    61  46  59 N6        29.84R
$$




USA.gov is the U.S. government's official web portal to all federal, state and local government web resources and services.